TimeMDT,TemperatureF,Dew PointF,Humidity,Sea Level PressureIn,VisibilityMPH,Wind Direction,Wind SpeedMPH,Gust SpeedMPH,PrecipitationIn,Events,Conditions,WindDirDegrees,DateUTC
12:58 AM,74.8,59.0,58,29.85,10.0,South,12.7,-,N/A,,Clear,180,2013-08-31 06:58:00
1:58 AM,73.4,59.0,61,29.85,10.0,South,12.7,-,N/A,,Clear,180,2013-08-31 07:58:00
2:58 AM,72.9,58.6,61,29.85,10.0,South,6.9,-,N/A,,Clear,180,2013-08-31 08:58:00
3:58 AM,69.4,58.6,68,29.85,10.0,South,5.8,-,N/A,,Clear,180,2013-08-31 09:58:00
4:58 AM,69.1,57.7,67,29.83,10.0,Variable,2.3,-,N/A,,Clear,0,2013-08-31 10:58:00
5:58 AM,68.4,57.0,67,29.83,10.0,SW,3.5,-,N/A,,Mostly Cloudy,230,2013-08-31 11:58:00
6:58 AM,66.0,57.9,75,29.86,10.0,NW,8.1,-,N/A,,Clear,310,2013-08-31 12:58:00
7:58 AM,72.5,56.5,57,29.87,10.0,North,18.4,-,N/A,,Clear,350,2013-08-31 13:58:00
8:58 AM,79.5,56.8,46,29.88,10.0,North,20.7,27.6,N/A,,Clear,360,2013-08-31 14:58:00
9:58 AM,81.7,57.2,43,29.88,10.0,NNW,26.5,41.4,N/A,,Clear,340,2013-08-31 15:58:00
10:58 AM,80.1,50.9,36,29.91,10.0,NNW,31.1,39.1,N/A,,Partly Cloudy,340,2013-08-31 16:58:00
11:58 AM,81.5,48.2,31,29.91,10.0,NNW,28.8,38.0,N/A,,Clear,340,2013-08-31 17:58:00
12:58 PM,82.8,46.0,28,29.94,10.0,North,28.8,36.8,N/A,,Clear,360,2013-08-31 18:58:00
1:58 PM,84.2,45.9,26,29.94,10.0,North,20.7,33.4,N/A,,Clear,350,2013-08-31 19:58:00
2:58 PM,84.9,46.6,26,29.94,10.0,North,18.4,26.5,N/A,,Clear,350,2013-08-31 20:58:00
3:58 PM,84.6,46.2,26,29.95,10.0,North,15.0,25.3,N/A,,Clear,350,2013-08-31 21:58:00
4:58 PM,83.1,45.3,26,29.95,10.0,NNW,16.1,26.5,N/A,,Clear,330,2013-08-31 22:58:00
5:58 PM,81.7,43.2,26,29.96,10.0,NNW,18.4,-,N/A,,Clear,340,2013-08-31 23:58:00
6:58 PM,79.2,43.0,28,29.99,10.0,North,10.4,-,N/A,,Clear,360,2013-09-01 00:58:00
7:58 PM,75.9,41.9,30,29.99,10.0,NNW,6.9,-,N/A,,Clear,340,2013-09-01 01:58:00
8:58 PM,72.3,41.7,33,30.03,10.0,NNW,8.1,-,N/A,,Clear,330,2013-09-01 02:58:00
9:58 PM,66.7,45.7,47,30.03,10.0,NW,8.1,-,N/A,,Clear,320,2013-09-01 03:58:00
10:58 PM,63.3,43.0,47,30.04,10.0,NW,10.4,-,N/A,,Clear,320,2013-09-01 04:58:00
11:58 PM,60.3,41.9,51,30.06,10.0,NW,10.4,-,N/A,,Clear,310,2013-09-01 05:58:00